Location: Cahas Mountain Overlook
(37.0833°N, 80.1000°W)
Time: 01:43:33
(UTC-05:00)

A-11 Canister half - Pass Details

Date: 29 November 2023
Orbit: 1512 x 1687 km, 47.2° (Epoch: 01 March)

Event Time Altitude Azimuth Distance (km) Brightness Sun altitude
Exits shadow 03:18:26 42° 37° (NE) 2,225 9.9 -46.3°
Drops below altitude 10° 03:24:50 10° 59° (ENE) 3,934 11.6 -45.0°
Sets 03:28:08 0° 63° (ENE) 4,935 12.3 -44.3°
